Weather in Mérida

Spain     38°54′52″N   6°20′00″W
temp.,
°C
wind,
m/s
gust,
m/s
humid.,
%
clouds,
%
prec.,
mm/h
press.,
hPa
HPBL,
m
10 may, mon
mon1023:00+13wnw495992 0.0 1012548
02:00+9w23830 0.0 101344
05:00+7wsw22940 0.0 101325
08:00+8wsw11930 0.0 101417
11:00+14sw35616 0.1 10141211
14:00+16wsw6750100 0.6 10121848
17:00+15wsw595990 2.3 10121656
20:00+15wnw69595 2.9 10121335
11 may, tue
tue1123:00+10w511801 0.0 1017511
02:00+8w410931 0.0 1018314
05:00+6wsw38967 0.0 1020219
08:00+6wsw25941 0.0 1021174
11:00+13w46572 0.0 10221276
14:00+16w564299 0.0 10222010
17:00+18wnw57406 0.0 10202059
20:00+17wnw47431 0.0 10201635
12 may, wed
wed1223:00+11nw23644 0.0 102234
02:00+11w256916 0.0 1022189
05:00+9wsw237797 0.0 1021108
08:00+10wsw2682100 0.0 1021305
11:00+13wsw5976100 0.3 1021680
14:00+18w694930 0.4 10201763
17:00+22w7103448 0.0 10182444
20:00+20wnw6842100 0.0 10181464
13 may, thu
thu1323:00+13wnw356150 0.0 1021150
02:00+10w22755 0.0 102139
05:00+9w22845 0.0 102036
08:00+9w238785 0.0 1020105
11:00+16wsw34615 0.0 1019873
14:00+21w684871 0.0 10161639
17:00+21w71050100 0.0 10141844
20:00+19w6105787 0.0 10141356
14 may, fri
fri1423:00+16w4107551 0.0 1014754
02:00+15w598380 0.1 1013814
05:00+10w389531 0.0 1014301
08:00+11w477940 0.0 1014399
11:00+16nw45510 0.0 10141130
14:00+20nw56325 0.0 10132062
17:00+22nw68230 0.0 10132366
20:00+20nw47325 0.0 10132312